Time,TemperatureF,DewpointF,PressureIn,WindDirection,WindDirectionDegrees,WindSpeedMPH,WindSpeedGustMPH,Humidity,HourlyPrecipIn,Conditions,Clouds,dailyrainin,SoftwareType,DateUTC
2013-02-03 00:04:00,69.0,-99.9,30.13,SE,133,7.0,10.0,-999,-99.99,,,-99.99,,2013-02-03 05:04:00,
2013-02-03 00:12:00,69.0,-99.9,30.13,SE,129,4.0,6.0,-999,-99.99,,,-99.99,,2013-02-03 05:12:00,
2013-02-03 00:23:00,69.0,-99.9,30.13,ESE,105,6.0,8.0,-999,-99.99,,,-99.99,,2013-02-03 05:23:00,
2013-02-03 00:32:00,69.0,-99.9,30.13,SE,146,3.0,5.0,-999,-99.99,,,-99.99,,2013-02-03 05:32:00,
2013-02-03 00:42:00,70.0,-99.9,30.12,SSE,148,5.0,7.0,-999,-99.99,,,-99.99,,2013-02-03 05:42:00,
2013-02-03 00:53:00,69.0,-99.9,30.12,SE,128,5.0,7.0,-999,-99.99,,,-99.99,,2013-02-03 05:53:00,
2013-02-03 01:02:00,69.0,-99.9,30.11,ESE,122,6.0,8.0,-999,-99.99,,,-99.99,,2013-02-03 06:02:00,
2013-02-03 01:11:00,69.0,-99.9,30.11,ESE,121,5.0,7.0,-999,-99.99,,,-99.99,,2013-02-03 06:11:00,
2013-02-03 01:22:00,69.0,-99.9,30.11,ESE,108,2.0,5.0,-999,-99.99,,,-99.99,,2013-02-03 06:22:00,
2013-02-03 01:32:00,69.0,-99.9,30.11,ESE,104,-999.0,5.0,-999,-99.99,,,-99.99,,2013-02-03 06:32:00,
2013-02-03 01:42:00,68.0,-99.9,30.11,SSE,167,2.0,4.0,-999,-99.99,,,-99.99,,2013-02-03 06:42:00,
2013-02-03 01:52:00,69.0,-99.9,30.11,SSE,152,2.0,3.0,-999,-99.99,,,-99.99,,2013-02-03 06:52:00,
2013-02-03 02:02:00,66.0,-99.9,30.10,WNW,286,-999.0,2.0,-999,-99.99,,,-99.99,,2013-02-03 07:02:00,
2013-02-03 02:11:00,64.0,-99.9,30.10,WNW,293,4.0,5.0,-999,-99.99,,,-99.99,,2013-02-03 07:11:00,
2013-02-03 02:22:00,64.0,-99.9,30.10,WNW,297,5.0,6.0,-999,-99.99,,,-99.99,,2013-02-03 07:22:00,
2013-02-03 02:32:00,63.0,-99.9,30.10,WNW,298,4.0,6.0,-999,-99.99,,,-99.99,,2013-02-03 07:32:00,
2013-02-03 02:42:00,63.0,-99.9,30.09,NW,306,5.0,6.0,-999,-99.99,,,-99.99,,2013-02-03 07:42:00,
2013-02-03 02:52:00,64.0,-99.9,30.09,NW,310,6.0,7.0,-999,-99.99,,,-99.99,,2013-02-03 07:52:00,
2013-02-03 03:02:00,64.0,-99.9,30.09,NW,308,6.0,8.0,-999,-99.99,,,-99.99,,2013-02-03 08:02:00,
2013-02-03 03:11:00,64.0,-99.9,30.09,NW,305,6.0,7.0,-999,-99.99,,,-99.99,,2013-02-03 08:11:00,
2013-02-03 03:22:00,63.0,-99.9,30.09,NW,304,5.0,7.0,-999,-99.99,,,-99.99,,2013-02-03 08:22:00,
2013-02-03 03:32:00,63.0,-99.9,30.09,NW,307,7.0,8.0,-999,-99.99,,,-99.99,,2013-02-03 08:32:00,
2013-02-03 03:42:00,64.0,-99.9,30.09,NW,306,7.0,9.0,-999,-99.99,,,-99.99,,2013-02-03 08:42:00,
2013-02-03 03:52:00,63.0,-99.9,30.09,WNW,298,5.0,8.0,-999,-99.99,,,-99.99,,2013-02-03 08:52:00,
2013-02-03 04:03:00,62.0,-99.9,30.09,WNW,292,5.0,6.0,-999,-99.99,,,-99.99,,2013-02-03 09:03:00,
2013-02-03 04:11:00,62.0,-99.9,30.09,WNW,297,6.0,8.0,-999,-99.99,,,-99.99,,2013-02-03 09:11:00,
2013-02-03 04:22:00,62.0,-99.9,30.09,WNW,300,7.0,9.0,-999,-99.99,,,-99.99,,2013-02-03 09:22:00,
2013-02-03 04:32:00,62.0,-99.9,30.09,NW,305,7.0,8.0,-999,-99.99,,,-99.99,,2013-02-03 09:32:00,
2013-02-03 04:42:00,62.0,-99.9,30.09,NW,308,7.0,9.0,-999,-99.99,,,-99.99,,2013-02-03 09:42:00,
2013-02-03 04:52:00,62.0,-99.9,30.09,NW,312,6.0,8.0,-999,-99.99,,,-99.99,,2013-02-03 09:52:00,
2013-02-03 05:01:00,62.0,-99.9,30.09,WNW,298,6.0,7.0,-999,-99.99,,,-99.99,,2013-02-03 10:01:00,
2013-02-03 05:11:00,62.0,-99.9,30.09,NW,307,10.0,12.0,-999,-99.99,,,-99.99,,2013-02-03 10:11:00,
2013-02-03 05:22:00,62.0,-99.9,30.09,NW,305,8.0,9.0,-999,-99.99,,,-99.99,,2013-02-03 10:22:00,
2013-02-03 05:32:00,62.0,-99.9,30.09,NW,318,13.0,19.0,-999,-99.99,,,-99.99,,2013-02-03 10:32:00,
2013-02-03 05:42:00,60.0,-99.9,30.10,NW,317,12.0,16.0,-999,-99.99,,,-99.99,,2013-02-03 10:42:00,
2013-02-03 05:53:00,59.0,-99.9,30.10,NW,319,12.0,15.0,-999,-99.99,,,-99.99,,2013-02-03 10:53:00,
2013-02-03 06:02:00,59.0,-99.9,30.10,NW,316,11.0,13.0,-999,-99.99,,,-99.99,,2013-02-03 11:02:00,
2013-02-03 06:11:00,59.0,-99.9,30.11,NW,314,10.0,13.0,-999,-99.99,,,-99.99,,2013-02-03 11:11:00,
2013-02-03 06:22:00,58.0,-99.9,30.11,NW,313,12.0,14.0,-999,-99.99,,,-99.99,,2013-02-03 11:22:00,
2013-02-03 06:32:00,59.0,-99.9,30.11,NW,317,13.0,16.0,-999,-99.99,,,-99.99,,2013-02-03 11:32:00,
2013-02-03 06:42:00,59.0,-99.9,30.11,NW,315,13.0,16.0,-999,-99.99,,,-99.99,,2013-02-03 11:42:00,
2013-02-03 06:52:00,58.0,-99.9,30.11,NW,306,11.0,15.0,-999,-99.99,,,-99.99,,2013-02-03 11:52:00,
2013-02-03 07:03:00,59.0,-99.9,30.12,NW,315,12.0,15.0,-999,-99.99,,,-99.99,,2013-02-03 12:03:00,
2013-02-03 07:12:00,59.0,-99.9,30.12,NW,315,12.0,16.0,-999,-99.99,,,-99.99,,2013-02-03 12:12:00,
2013-02-03 07:22:00,58.0,-99.9,30.12,NW,316,12.0,14.0,-999,-99.99,,,-99.99,,2013-02-03 12:22:00,
2013-02-03 07:33:00,59.0,-99.9,30.13,NW,321,13.0,15.0,-999,-99.99,,,-99.99,,2013-02-03 12:33:00,
2013-02-03 07:42:00,59.0,-99.9,30.13,NW,314,12.0,16.0,-999,-99.99,,,-99.99,,2013-02-03 12:42:00,
2013-02-03 07:53:00,59.0,-99.9,30.14,NW,318,13.0,17.0,-999,-99.99,,,-99.99,,2013-02-03 12:53:00,
2013-02-03 08:04:00,60.0,-99.9,30.14,NW,322,12.0,16.0,-999,-99.99,,,-99.99,,2013-02-03 13:04:00,
2013-02-03 08:12:00,60.0,-99.9,30.14,NW,317,12.0,15.0,-999,-99.99,,,-99.99,,2013-02-03 13:12:00,
2013-02-03 08:22:00,60.0,-99.9,30.14,NW,320,12.0,15.0,-999,-99.99,,,-99.99,,2013-02-03 13:22:00,
2013-02-03 08:32:00,60.0,-99.9,30.15,NW,322,11.0,14.0,-999,-99.99,,,-99.99,,2013-02-03 13:32:00,
2013-02-03 08:42:00,61.0,-99.9,30.15,NNW,327,11.0,13.0,-999,-99.99,,,-99.99,,2013-02-03 13:42:00,
2013-02-03 08:53:00,62.0,-99.9,30.16,NW,325,10.0,13.0,-999,-99.99,,,-99.99,,2013-02-03 13:53:00,
2013-02-03 09:03:00,62.0,-99.9,30.16,NW,326,9.0,15.0,-999,-99.99,,,-99.99,,2013-02-03 14:03:00,
2013-02-03 09:12:00,63.0,-99.9,30.16,NNW,328,11.0,14.0,-999,-99.99,,,-99.99,,2013-02-03 14:12:00,
2013-02-03 09:22:00,63.0,-99.9,30.16,NW,326,9.0,14.0,-999,-99.99,,,-99.99,,2013-02-03 14:22:00,
2013-02-03 09:32:00,64.0,-99.9,30.17,NNW,328,11.0,13.0,-999,-99.99,,,-99.99,,2013-02-03 14:32:00,
2013-02-03 09:43:00,64.0,-99.9,30.17,NNW,330,13.0,15.0,-999,-99.99,,,-99.99,,2013-02-03 14:43:00,
2013-02-03 09:52:00,64.0,-99.9,30.17,NNW,327,11.0,16.0,-999,-99.99,,,-99.99,,2013-02-03 14:52:00,
2013-02-03 10:03:00,65.0,-99.9,30.17,NNW,330,13.0,17.0,-999,-99.99,,,-99.99,,2013-02-03 15:03:00,
2013-02-03 10:12:00,65.0,-99.9,30.18,NNW,334,10.0,14.0,-999,-99.99,,,-99.99,,2013-02-03 15:12:00,
2013-02-03 10:23:00,66.0,-99.9,30.18,NW,317,9.0,12.0,-999,-99.99,,,-99.99,,2013-02-03 15:23:00,
2013-02-03 10:33:00,66.0,-99.9,30.18,NNW,327,12.0,15.0,-999,-99.99,,,-99.99,,2013-02-03 15:33:00,
2013-02-03 10:42:00,66.0,-99.9,30.18,NNW,335,12.0,17.0,-999,-99.99,,,-99.99,,2013-02-03 15:42:00,
2013-02-03 10:52:00,66.0,-99.9,30.18,NNW,334,13.0,15.0,-999,-99.99,,,-99.99,,2013-02-03 15:52:00,
2013-02-03 11:03:00,67.0,-99.9,30.17,NNW,342,11.0,15.0,-999,-99.99,,,-99.99,,2013-02-03 16:03:00,
2013-02-03 11:12:00,67.0,-99.9,30.17,NNW,347,12.0,14.0,-999,-99.99,,,-99.99,,2013-02-03 16:12:00,
2013-02-03 11:22:00,67.0,-99.9,30.17,NW,326,10.0,17.0,-999,-99.99,,,-99.99,,2013-02-03 16:22:00,
2013-02-03 11:33:00,68.0,-99.9,30.16,NNW,336,9.0,13.0,-999,-99.99,,,-99.99,,2013-02-03 16:33:00,
2013-02-03 11:42:00,68.0,-99.9,30.16,NW,318,9.0,13.0,-999,-99.99,,,-99.99,,2013-02-03 16:42:00,
2013-02-03 11:52:00,68.0,-99.9,30.16,NNW,343,11.0,15.0,-999,-99.99,,,-99.99,,2013-02-03 16:52:00,
2013-02-03 12:03:00,68.0,-99.9,30.15,NNW,340,11.0,15.0,-999,-99.99,,,-99.99,,2013-02-03 17:03:00,
2013-02-03 12:12:00,69.0,-99.9,30.14,NNW,339,9.0,15.0,-999,-99.99,,,-99.99,,2013-02-03 17:12:00,
2013-02-03 12:22:00,69.0,-99.9,30.14,NNW,341,13.0,16.0,-999,-99.99,,,-99.99,,2013-02-03 17:22:00,
2013-02-03 12:32:00,68.0,-99.9,30.14,North,-999,14.0,16.0,-999,-99.99,,,-99.99,,2013-02-03 17:32:00,
2013-02-03 12:42:00,69.0,-99.9,30.14,North,6,14.0,16.0,-999,-99.99,,,-99.99,,2013-02-03 17:42:00,
2013-02-03 12:53:00,68.0,-99.9,30.13,North,11,13.0,16.0,-999,-99.99,,,-99.99,,2013-02-03 17:53:00,
2013-02-03 13:03:00,69.0,-99.9,30.13,NW,320,10.0,18.0,-999,-99.99,,,-99.99,,2013-02-03 18:03:00,
2013-02-03 13:12:00,69.0,-99.9,30.12,NNW,339,9.0,17.0,-999,-99.99,,,-99.99,,2013-02-03 18:12:00,
2013-02-03 13:23:00,68.0,-99.9,30.12,North,350,13.0,17.0,-999,-99.99,,,-99.99,,2013-02-03 18:23:00,
2013-02-03 13:33:00,68.0,-99.9,30.11,NNW,342,13.0,17.0,-999,-99.99,,,-99.99,,2013-02-03 18:33:00,
2013-02-03 13:42:00,67.0,-99.9,30.11,NNE,13,17.0,21.0,-999,-99.99,,,-99.99,,2013-02-03 18:42:00,
2013-02-03 13:52:00,67.0,-99.9,30.10,North,6,18.0,21.0,-999,-99.99,,,-99.99,,2013-02-03 18:52:00,
2013-02-03 14:03:00,68.0,-99.9,30.10,NNE,14,15.0,20.0,-999,-99.99,,,-99.99,,2013-02-03 19:03:00,
2013-02-03 14:11:00,67.0,-99.9,30.09,NNE,15,18.0,21.0,-999,-99.99,,,-99.99,,2013-02-03 19:11:00,
2013-02-03 14:22:00,67.0,-99.9,30.09,North,8,16.0,20.0,-999,-99.99,,,-99.99,,2013-02-03 19:22:00,
2013-02-03 14:33:00,67.0,-99.9,30.09,NNE,14,16.0,19.0,-999,-99.99,,,-99.99,,2013-02-03 19:33:00,
2013-02-03 14:42:00,67.0,-99.9,30.09,North,7,18.0,22.0,-999,-99.99,,,-99.99,,2013-02-03 19:42:00,
2013-02-03 14:52:00,67.0,-99.9,30.09,North,8,18.0,21.0,-999,-99.99,,,-99.99,,2013-02-03 19:52:00,
2013-02-03 15:02:00,67.0,-99.9,30.09,North,9,19.0,21.0,-999,-99.99,,,-99.99,,2013-02-03 20:02:00,
2013-02-03 15:12:00,67.0,-99.9,30.09,North,10,19.0,23.0,-999,-99.99,,,-99.99,,2013-02-03 20:12:00,
2013-02-03 15:22:00,67.0,-99.9,30.09,North,8,20.0,22.0,-999,-99.99,,,-99.99,,2013-02-03 20:22:00,
2013-02-03 15:33:00,67.0,-99.9,30.09,North,11,19.0,22.0,-999,-99.99,,,-99.99,,2013-02-03 20:33:00,
2013-02-03 15:42:00,67.0,-99.9,30.09,NNE,14,20.0,24.0,-999,-99.99,,,-99.99,,2013-02-03 20:42:00,
2013-02-03 15:52:00,67.0,-99.9,30.09,North,6,19.0,23.0,-999,-99.99,,,-99.99,,2013-02-03 20:52:00,
2013-02-03 16:04:00,67.0,-99.9,30.09,North,7,19.0,23.0,-999,-99.99,,,-99.99,,2013-02-03 21:04:00,
2013-02-03 16:11:00,67.0,-99.9,30.09,North,8,18.0,22.0,-999,-99.99,,,-99.99,,2013-02-03 21:11:00,
2013-02-03 16:22:00,67.0,-99.9,30.09,North,8,19.0,22.0,-999,-99.99,,,-99.99,,2013-02-03 21:22:00,
2013-02-03 16:33:00,67.0,-99.9,30.09,North,6,16.0,20.0,-999,-99.99,,,-99.99,,2013-02-03 21:33:00,
2013-02-03 16:42:00,67.0,-99.9,30.09,NNE,15,16.0,18.0,-999,-99.99,,,-99.99,,2013-02-03 21:42:00,
2013-02-03 16:52:00,68.0,-99.9,30.09,North,10,16.0,19.0,-999,-99.99,,,-99.99,,2013-02-03 21:52:00,
2013-02-03 17:02:00,68.0,-99.9,30.09,North,10,14.0,17.0,-999,-99.99,,,-99.99,,2013-02-03 22:02:00,
2013-02-03 17:11:00,68.0,-99.9,30.09,North,11,12.0,15.0,-999,-99.99,,,-99.99,,2013-02-03 22:11:00,
2013-02-03 17:22:00,68.0,-99.9,30.09,NNE,12,11.0,15.0,-999,-99.99,,,-99.99,,2013-02-03 22:22:00,
2013-02-03 17:32:00,68.0,-99.9,30.09,NNE,12,11.0,15.0,-999,-99.99,,,-99.99,,2013-02-03 22:32:00,
2013-02-03 17:42:00,68.0,-99.9,30.09,NNE,12,14.0,17.0,-999,-99.99,,,-99.99,,2013-02-03 22:42:00,
2013-02-03 17:52:00,68.0,-99.9,30.09,North,5,13.0,14.0,-999,-99.99,,,-99.99,,2013-02-03 22:52:00,
2013-02-03 18:02:00,69.0,-99.9,30.09,North,3,12.0,14.0,-999,-99.99,,,-99.99,,2013-02-03 23:02:00,
2013-02-03 18:12:00,68.0,-99.9,30.09,North,354,13.0,15.0,-999,-99.99,,,-99.99,,2013-02-03 23:12:00,
2013-02-03 18:22:00,68.0,-99.9,30.09,North,357,11.0,14.0,-999,-99.99,,,-99.99,,2013-02-03 23:22:00,
2013-02-03 18:33:00,68.0,-99.9,30.09,NNE,13,12.0,15.0,-999,-99.99,,,-99.99,,2013-02-03 23:33:00,
2013-02-03 18:42:00,68.0,-99.9,30.09,North,10,13.0,15.0,-999,-99.99,,,-99.99,,2013-02-03 23:42:00,
2013-02-03 18:52:00,68.0,-99.9,30.09,NNE,21,9.0,13.0,-999,-99.99,,,-99.99,,2013-02-03 23:52:00,
2013-02-03 19:02:00,68.0,-99.9,30.09,NNW,344,7.0,11.0,-999,-99.99,,,-99.99,,2013-02-04 00:02:00,
2013-02-03 19:11:00,68.0,-99.9,30.09,North,7,5.0,7.0,-999,-99.99,,,-99.99,,2013-02-04 00:11:00,
2013-02-03 19:22:00,68.0,-99.9,30.09,NNW,333,4.0,6.0,-999,-99.99,,,-99.99,,2013-02-04 00:22:00,
2013-02-03 19:32:00,67.0,-99.9,30.09,WNW,303,2.0,5.0,-999,-99.99,,,-99.99,,2013-02-04 00:32:00,
2013-02-03 19:42:00,66.0,-99.9,30.09,NW,311,3.0,4.0,-999,-99.99,,,-99.99,,2013-02-04 00:42:00,
2013-02-03 19:52:00,66.0,-99.9,30.09,NW,308,2.0,4.0,-999,-99.99,,,-99.99,,2013-02-04 00:52:00,
2013-02-03 20:01:00,66.0,-99.9,30.09,NW,307,3.0,3.0,-999,-99.99,,,-99.99,,2013-02-04 01:01:00,
2013-02-03 20:11:00,66.0,-99.9,30.10,NW,308,2.0,4.0,-999,-99.99,,,-99.99,,2013-02-04 01:11:00,
2013-02-03 20:22:00,65.0,-99.9,30.10,WNW,302,3.0,4.0,-999,-99.99,,,-99.99,,2013-02-04 01:22:00,
2013-02-03 20:32:00,65.0,-99.9,30.11,WNW,296,5.0,6.0,-999,-99.99,,,-99.99,,2013-02-04 01:32:00,
2013-02-03 20:42:00,64.0,-99.9,30.11,WNW,292,7.0,8.0,-999,-99.99,,,-99.99,,2013-02-04 01:42:00,
2013-02-03 20:52:00,64.0,-99.9,30.11,WNW,288,4.0,6.0,-999,-99.99,,,-99.99,,2013-02-04 01:52:00,
2013-02-03 21:02:00,63.0,-99.9,30.11,WSW,241,5.0,7.0,-999,-99.99,,,-99.99,,2013-02-04 02:02:00,
2013-02-03 21:11:00,63.0,-99.9,30.11,WSW,244,5.0,6.0,-999,-99.99,,,-99.99,,2013-02-04 02:11:00,
2013-02-03 21:22:00,62.0,-99.9,30.12,WSW,256,4.0,5.0,-999,-99.99,,,-99.99,,2013-02-04 02:22:00,
2013-02-03 21:32:00,62.0,-99.9,30.12,West,279,4.0,5.0,-999,-99.99,,,-99.99,,2013-02-04 02:32:00,
2013-02-03 21:42:00,62.0,-99.9,30.12,West,271,4.0,5.0,-999,-99.99,,,-99.99,,2013-02-04 02:42:00,
2013-02-03 21:52:00,62.0,-99.9,30.12,West,270,4.0,5.0,-999,-99.99,,,-99.99,,2013-02-04 02:52:00,
2013-02-03 22:02:00,63.0,-99.9,30.12,West,260,2.0,4.0,-999,-99.99,,,-99.99,,2013-02-04 03:02:00,
2013-02-03 22:11:00,62.0,-99.9,30.12,North,-999,-999.0,-999.0,-999,-99.99,,,-99.99,,2013-02-04 03:11:00,
2013-02-03 22:21:00,62.0,-99.9,30.12,WSW,257,2.0,3.0,-999,-99.99,,,-99.99,,2013-02-04 03:21:00,
2013-02-03 22:32:00,62.0,-99.9,30.12,West,271,-999.0,3.0,-999,-99.99,,,-99.99,,2013-02-04 03:32:00,
2013-02-03 22:42:00,63.0,-99.9,30.12,West,278,3.0,4.0,-999,-99.99,,,-99.99,,2013-02-04 03:42:00,
2013-02-03 22:52:00,63.0,-99.9,30.12,WNW,287,3.0,3.0,-999,-99.99,,,-99.99,,2013-02-04 03:52:00,
2013-02-03 23:02:00,64.0,-99.9,30.12,West,278,3.0,3.0,-999,-99.99,,,-99.99,,2013-02-04 04:02:00,
2013-02-03 23:11:00,63.0,-99.9,30.12,WSW,255,4.0,4.0,-999,-99.99,,,-99.99,,2013-02-04 04:11:00,
2013-02-03 23:22:00,63.0,-99.9,30.12,WSW,257,4.0,5.0,-999,-99.99,,,-99.99,,2013-02-04 04:22:00,
2013-02-03 23:32:00,63.0,-99.9,30.12,WSW,253,4.0,4.0,-999,-99.99,,,-99.99,,2013-02-04 04:32:00,
2013-02-03 23:42:00,62.0,-99.9,30.11,WSW,251,3.0,6.0,-999,-99.99,,,-99.99,,2013-02-04 04:42:00,
2013-02-03 23:52:00,62.0,-99.9,30.11,WSW,247,3.0,4.0,-999,-99.99,,,-99.99,,2013-02-04 04:52:00,